[[{"header":{"parameterUnit":"m.s-1","parameterCategory":2,"la1":30.2991,"la2":30.254,"lo1":-89.0895,"lo2":-89.0444,"dy":0.0017,"dx":0.0017,"nx":28,"ny":28,"refTime":"2025-07-22T03:00:00:Z","depth":"0","parameterNumber":2,"parameterNumberName":"U-component_of_CURRENTS"},"data":[0,0,0,0,0,0,0,0,0,0,0,0,0,0,0,0,0,0,0,0,0,0,0,0,0,0,0,0,0,0,0,0,0,0,0,0,0,0,0,0,0,0,0,0,0,0,0,0,0,0,0,0,0,0,0,0,0,0,0.3255,0.3256,0,0.3262,0.3262,0.3262,0.3244,0.3244,0.3243,0.3243,0.3267,0.3268,0.3269,0,0,0,0,0,0,0,0,0,0,0,0,0,0.3249,0.3249,0.3255,0.3256,0.3256,0.3262,0.3262,0.3262,0.3244,0.3244,0.3243,0.3243,0.3267,0.3268,0.3269,0,0,0,0,0,0,0,0,0,0,0,0,0,0.3252,0.3249,0.3255,0.3249,0.3249,0.3263,0.3262,0.3262,0.3244,0.3243,0.3243,0.3242,0.3266,0.3268,0.3269,0.3289,0,0,0.3274,0.3274,0,0,0,0,0,0,0,0,0.3251,0.3251,0.325,0.325,0.325,0.3254,0.3269,0.3273,0.3244,0.3244,0.3243,0.3242,0.3266,0.3267,0.3267,0.329,0.3291,0.3274,0.3275,0.3275,0.3276,0,0,0,0,0,0,0,0.3251,0.3251,0.3256,0.325,0.325,0.3254,0.3254,0.327,0.3256,0.3244,0.3243,0.3247,0.3266,0.3265,0.3267,0.3292,0.3274,0.3275,0.3276,0.3277,0.3405,0.3407,0,0,0,0,0,0,0.3254,0.3251,0.3256,0.3256,0.3252,0.3255,0.3254,0.3251,0.3256,0.3256,0.3248,0.3247,0.3263,0.3265,0.3268,0.3336,0.3275,0.3277,0.3278,0.3402,0.3405,0.3408,0,0,0,0,0,0,0.3254,0.3254,0.3255,0.3256,0.3257,0.3256,0.3253,0.3252,0.3252,0.3259,0.326,0.325,0.3263,0.3266,0.3296,0.3335,0.3277,0.3279,0.3399,0.3403,0.3407,0.3445,0,0,0,0,0,0,0.3254,0.3254,0.3255,0.3256,0.3257,0.3273,0.3253,0.3252,0.3257,0.3255,0.3261,0.3263,0.3262,0.3294,0.3298,0.3336,0.328,0.3396,0.3401,0.3405,0.344,0.3449,0.3457,0,0,0,0,0,0.3253,0.3259,0.3255,0.3256,0.3258,0.3275,0.3276,0.3271,0.3257,0.3267,0.3274,0.3262,0.3327,0.3297,0.33,0.334,0.3394,0.3399,0.3405,0.3436,0.3447,0.3457,0,0,0,0,0,0,0.3255,0.3258,0.3254,0.3258,0.3271,0.3272,0.3281,0.3275,0.3286,0.3283,0.3282,0.3285,0.3337,0.3335,0.3301,0.3396,0.3364,0.3371,0.3387,0.3397,0.3406,0.3421,0.3281,0,0,0,0,0,0.3257,0.3261,0.3268,0.3273,0.328,0.328,0.3286,0.3284,0.3293,0.3295,0.3301,0.3322,0.3364,0.3374,0.3406,0.3442,0.3464,0.3477,0.3486,0.3492,0.3511,0.3604,0.3622,0.3426,0.3426,0.3426,0,0,0.3258,0.3262,0.3263,0.3275,0.328,0.3298,0.3282,0.3294,0.3313,0.3299,0.3325,0.3352,0.3384,0.3436,0.3459,0.3434,0.3553,0.35,0.3505,0.352,0.3612,0.3631,0.3648,0.343,0.343,0.3429,0,0,0.3265,0.3268,0.3273,0.3289,0.3304,0.3312,0.3318,0.3325,0.3334,0.3365,0.3377,0.3427,0.3459,0.3502,0.3527,0.3603,0.3603,0.3613,0.3654,0.3745,0.3761,0.3776,0.3793,0.3809,0.3607,0.3607,0.3607,0,0.3267,0.327,0.3281,0.3297,0.3312,0.332,0.3337,0.3357,0.3374,0.3405,0.3382,0.3495,0.3501,0.3605,0.3622,0.3623,0.3649,0.3605,0.3755,0.377,0.3785,0.3799,0.3816,0.3609,0.3609,0.3609,0.3608,0,0.3279,0.3287,0.3296,0.3318,0.3343,0.3357,0.339,0.3417,0.3428,0.3459,0.3556,0.3585,0.3658,0.367,0.3658,0.3779,0.3753,0.3759,0.3723,0.3807,0.3816,0.3833,0.3613,0.3612,0.3611,0.3611,0,0,0.3258,0.3294,0.3295,0.3306,0.3351,0.3367,0.3426,0.3485,0.3538,0.3581,0.3666,0.3737,0.3769,0.3802,0.3817,0.3876,0.3968,0.3852,0.3855,0.3856,0.4124,0.3944,0.3945,0.4004,0.4008,0.4012,0.4073,0,0.3258,0.328,0.3308,0.3338,0.3352,0.34,0.3461,0.3527,0.3585,0.3672,0.3753,0.3841,0.3818,0.3859,0.3925,0.3974,0.4024,0.3948,0.4054,0.4056,0.3878,0.3964,0.3785,0.3812,0.409,0.4093,0.4095,0,0.3247,0.3267,0.329,0.3347,0.3362,0.3392,0.3494,0.3549,0.3693,0.3752,0.3874,0.3939,0.4055,0.4016,0.4158,0.4112,0.4123,0.4143,0.4147,0.3984,0.3911,0.3784,0.3834,0.377,0.4122,0.412,0.4118,0,0.3204,0.3247,0.326,0.3278,0.3356,0.3389,0.344,0.3572,0.3651,0.3813,0.3902,0.4052,0.4123,0.4213,0.4241,0.4218,0.4369,0.4347,0.4198,0.4183,0.4054,0.4019,0.4047,0.4455,0.4455,0.4455,0.4455,0,0.3179,0.3186,0.3236,0.3243,0.3287,0.3358,0.3442,0.3526,0.3689,0.3789,0.3939,0.4044,0.4179,0.4274,0.4298,0.429,0.4424,0.4222,0.4208,0.4053,0.402,0.3974,0.3953,0.4457,0.4457,0.4456,0.4456,0,0.3121,0.3151,0.3169,0.3239,0.326,0.3291,0.3422,0.35,0.3658,0.3798,0.3861,0.4063,0.4156,0.4258,0.4372,0.4324,0.4233,0.4319,0.408,0.4034,0.3774,0.376,0.3625,0.3529,0.4161,0.4158,0.4154,0,0.309,0.3092,0.3145,0.3158,0.3181,0.3245,0.3303,0.3462,0.3552,0.3786,0.3849,0.4003,0.4065,0.4166,0.4132,0.4141,0.4092,0.3956,0.3876,0.3744,0.3723,0.36,0.3523,0.3717,0.371,0.3705,0.3701,0,0.3041,0.3058,0.3077,0.3101,0.3136,0.3188,0.3273,0.3342,0.3522,0.363,0.3749,0.3821,0.3899,0.3819,0.382,0.381,0.3754,0.3837,0.3816,0.3464,0.3227,0.3131,0.3652,0.3653,0.3658,0.3661,0.3664,0.3666,0.3002,0.2999,0.3021,0.303,0.3067,0.3093,0.3089,0.3191,0.3275,0.3371,0.3532,0.3546,0.3583,0.354,0.3509,0.3341,0.3367,0.3244,0.3264,0.3171,0.2993,0.3348,0.3255,0.3257,0.3259,0.3261,0.3262,0,0.2939,0.2936,0.2949,0.2936,0.2914,0.2978,0.3034,0.3001,0.2992,0.3113,0.3157,0.3161,0.3079,0.3104,0.2976,0.2835,0.2736,0.2772,0.2633,0.2609,0.3042,0.2938,0.2631,0.2631,0.2631,0.2631,0.2632,0.2632,0.291,0.2875,0.2865,0.2773,0.2759,0.2683,0.2674,0.2641,0.2679,0.2636,0.2622,0.2705,0.2832,0.2784,0.262,0.2543,0.2422,0.2235,0.2301,0.269,0.2738,0.2784,0.2684,0.2329,0.2329,0.175,0.1746,0.1743]},{"header":{"parameterUnit":"m.s-1","parameterCategory":2,"la1":30.2991,"la2":30.254,"lo1":-89.0895,"lo2":-89.0444,"dy":0.0017,"dx":0.0017,"nx":28,"ny":28,"refTime":"2025-07-22T03:00:00:Z","depth":"0","parameterNumber":3,"parameterNumberName":"V-component_of_CURRENTS"},"data":[0,0,0,0,0,0,0,0,0,0,0,0,0,0,0,0,0,0,0,0,0,0,0,0,0,0,0,0,0,0,0,0,0,0,0,0,0,0,0,0,0,0,0,0,0,0,0,0,0,0,0,0,0,0,0,0,0,0,0.0383,0.0383,0,0.0357,0.0356,0.0356,0.0329,0.0329,0.0329,0.0328,0.0303,0.0302,0.0302,0,0,0,0,0,0,0,0,0,0,0,0,0,0.0366,0.0366,0.0383,0.0383,0.0382,0.0357,0.0356,0.0356,0.0329,0.0329,0.0329,0.0328,0.0303,0.0302,0.0302,0,0,0,0,0,0,0,0,0,0,0,0,0,0.0359,0.0367,0.0383,0.0367,0.0365,0.0357,0.0356,0.0356,0.0329,0.0329,0.0329,0.0328,0.0303,0.0302,0.0302,0.0306,0,0,0.03,0.0299,0,0,0,0,0,0,0,0,0.0359,0.0359,0.0369,0.0368,0.0366,0.0347,0.0341,0.0339,0.0329,0.0342,0.0328,0.0328,0.0318,0.0316,0.0311,0.0304,0.0303,0.03,0.0299,0.0299,0.0299,0,0,0,0,0,0,0,0.036,0.036,0.0371,0.0369,0.0367,0.0346,0.0345,0.034,0.0332,0.0341,0.0339,0.0338,0.0317,0.0312,0.031,0.0303,0.03,0.0299,0.0299,0.0298,0.0325,0.0326,0,0,0,0,0,0,0.0368,0.0361,0.0372,0.0371,0.0363,0.0347,0.0346,0.0353,0.0332,0.0329,0.0338,0.0337,0.0313,0.0311,0.0309,0.034,0.0299,0.0298,0.0298,0.0324,0.0325,0.0326,0,0,0,0,0,0,0.0368,0.037,0.0373,0.0365,0.0365,0.0348,0.0356,0.0352,0.0348,0.033,0.0327,0.0338,0.0313,0.031,0.0316,0.0338,0.0298,0.0297,0.0322,0.0324,0.0326,0.0385,0,0,0,0,0,0,0.0368,0.037,0.0376,0.0367,0.0365,0.0376,0.0356,0.0352,0.0348,0.0346,0.0329,0.0326,0.0312,0.0317,0.0315,0.0336,0.0297,0.0321,0.0323,0.0325,0.0381,0.0388,0.0394,0,0,0,0,0,0.0368,0.0384,0.0376,0.0378,0.0375,0.0377,0.0375,0.036,0.0349,0.0353,0.0344,0.0326,0.0329,0.0317,0.0315,0.0336,0.032,0.0323,0.0325,0.0378,0.0387,0.0394,0,0,0,0,0,0,0.0377,0.0382,0.0374,0.039,0.0385,0.0373,0.0376,0.0364,0.036,0.0358,0.0338,0.0335,0.0349,0.0335,0.0323,0.0351,0.0322,0.0325,0.0364,0.0371,0.0378,0.0398,0.0296,0,0,0,0,0,0.0383,0.0397,0.0392,0.0403,0.0404,0.0389,0.0387,0.0379,0.0373,0.037,0.036,0.0354,0.0357,0.0358,0.0355,0.0369,0.0353,0.0382,0.0389,0.0394,0.041,0.0412,0.042,0.0334,0.0334,0.0334,0,0,0.0388,0.0393,0.0399,0.0406,0.04,0.0417,0.0387,0.0391,0.0408,0.0369,0.0389,0.0374,0.0366,0.0383,0.0388,0.0375,0.0406,0.0397,0.0402,0.0415,0.0415,0.0423,0.0431,0.0336,0.0336,0.0336,0,0,0.0414,0.0412,0.0434,0.0437,0.0437,0.0434,0.0438,0.0432,0.0432,0.0446,0.0427,0.0429,0.0429,0.043,0.0431,0.0471,0.0439,0.0467,0.0517,0.0519,0.0526,0.0532,0.0505,0.0508,0.0472,0.0472,0.0472,0,0.0419,0.045,0.0438,0.0461,0.0473,0.0448,0.0477,0.0476,0.0473,0.0487,0.0463,0.0478,0.0457,0.0493,0.0501,0.0487,0.0472,0.0488,0.0527,0.0533,0.0538,0.0509,0.0512,0.0475,0.0475,0.0474,0.0474,0,0.0465,0.0486,0.05,0.0526,0.0535,0.0555,0.0556,0.0567,0.0562,0.0563,0.059,0.0565,0.0579,0.0566,0.0543,0.0577,0.0547,0.0533,0.0508,0.0551,0.0516,0.0518,0.048,0.0478,0.0477,0.0477,0,0,0.0489,0.0527,0.0532,0.0562,0.0575,0.0595,0.0624,0.0655,0.0695,0.0677,0.0729,0.0709,0.0692,0.0692,0.0663,0.0654,0.0655,0.0611,0.0609,0.0583,0.064,0.0594,0.059,0.0648,0.0649,0.065,0.0594,0,0.0531,0.0596,0.0599,0.0662,0.0701,0.0695,0.0735,0.0755,0.0766,0.0808,0.0784,0.0818,0.0743,0.0758,0.0736,0.069,0.0667,0.0671,0.0604,0.0601,0.0555,0.0594,0.06,0.0549,0.0596,0.0596,0.0596,0,0.0577,0.0622,0.0692,0.0757,0.0773,0.0802,0.0871,0.0906,0.0944,0.0956,0.0969,0.0951,0.0947,0.0878,0.081,0.0817,0.0733,0.0679,0.0676,0.0618,0.056,0.0518,0.055,0.0472,0.0599,0.0598,0.0598,0,0.062,0.0687,0.0752,0.0771,0.0836,0.0869,0.0906,0.0951,0.1016,0.1058,0.1111,0.1081,0.1093,0.1,0.0872,0.0848,0.0789,0.0742,0.0616,0.061,0.0596,0.0588,0.0549,0.069,0.069,0.069,0.0691,0,0.0672,0.0723,0.0778,0.0816,0.0911,0.0929,0.1032,0.1062,0.1142,0.1243,0.1197,0.1264,0.1126,0.1072,0.0929,0.0785,0.083,0.0636,0.0605,0.0613,0.0608,0.0523,0.0451,0.0688,0.0689,0.0689,0.0689,0,0.0709,0.074,0.0824,0.0902,0.0932,0.1002,0.1122,0.1209,0.1262,0.1395,0.1423,0.1416,0.1336,0.1178,0.1025,0.0871,0.0667,0.0661,0.0663,0.0633,0.0426,0.0357,0.025,0.0216,0.0514,0.0513,0.0512,0,0.0736,0.0782,0.0887,0.0949,0.0985,0.1091,0.118,0.1263,0.137,0.1496,0.1577,0.1539,0.1527,0.1275,0.1006,0.0751,0.0636,0.0572,0.0522,0.0429,0.033,0.0281,0.0258,0.0515,0.0514,0.0513,0.0513,0,0.0793,0.0822,0.0895,0.1024,0.1119,0.1244,0.1373,0.1479,0.16,0.1706,0.1817,0.1814,0.1573,0.1328,0.097,0.0778,0.0511,0.0545,0.0468,0.0347,0.0275,0.0223,0.0514,0.0506,0.0506,0.0507,0.0507,0.0507,0.0832,0.0891,0.0985,0.1108,0.1223,0.1378,0.1494,0.1643,0.1815,0.1983,0.1971,0.1988,0.1644,0.1157,0.0899,0.0457,0.044,0.0319,0.0246,0.0209,0.0174,0.0431,0.0376,0.0376,0.0376,0.0376,0.0376,0,0.0884,0.0954,0.1068,0.1212,0.1341,0.1398,0.1614,0.1743,0.1938,0.2076,0.2152,0.1999,0.157,0.114,0.0538,0.0241,0.0143,0.008,0.0036,0.0029,0.0285,0.0286,0.0187,0.0187,0.0187,0.0187,0.0188,0.0188,0.0914,0.1018,0.1075,0.1278,0.1385,0.1572,0.1696,0.1886,0.203,0.2188,0.2212,0.2214,0.1907,0.0832,0.0182,0.0025,-0.013,-0.022,-0.028,-0.0086,-0.0068,-0.005,-0.0062,-0.0232,-0.0232,-0.0472,-0.0475,-0.0477]}],[{"header":{"parameterUnit":"m.s-1","parameterCategory":2,"la1":30.2991,"la2":30.254,"lo1":-89.0895,"lo2":-89.0444,"dy":0.0017,"dx":0.0017,"nx":28,"ny":28,"refTime":"2025-07-22T03:00:00:Z","depth":"2","parameterNumber":2,"parameterNumberName":"U-component_of_CURRENTS"},"data":[0,0,0,0,0,0,0,0,0,0,0,0,0,0,0,0,0,0,0,0,0,0,0,0,0,0,0,0,0,0,0,0,0,0,0,0,0,0,0,0,0,0,0,0,0,0,0,0,0,0,0,0,0,0,0,0,0,0,0.2871,0.2872,0,0.2873,0.2873,0.2873,0.2868,0.2868,0.2868,0.2868,0.2891,0.2891,0.2892,0,0,0,0,0,0,0,0,0,0,0,0,0,0.2872,0.2871,0.2871,0.2872,0.2872,0.2873,0.2873,0.2873,0.2868,0.2868,0.2868,0.2868,0.2891,0.2891,0.2892,0,0,0,0,0,0,0,0,0,0,0,0,0,0.287,0.2871,0.2871,0.2871,0.2872,0.2873,0.2873,0.2873,0.2868,0.2868,0.2868,0.2868,0.2891,0.2891,0.2892,0.2895,0,0,0.2895,0.2895,0,0,0,0,0,0,0,0,0.287,0.2869,0.2871,0.2872,0.2872,0.2873,0.2882,0.2882,0.2868,0.2866,0.2868,0.2868,0.2888,0.2889,0.2885,0.2896,0.2897,0.2895,0.2895,0.2896,0.2896,0,0,0,0,0,0,0,0.287,0.2869,0.2869,0.2872,0.2872,0.2874,0.2874,0.2881,0.2875,0.2867,0.2867,0.2871,0.2888,0.2885,0.2886,0.2897,0.2895,0.2895,0.2896,0.2896,0.2977,0.2979,0,0,0,0,0,0,0.2874,0.2869,0.2869,0.287,0.2874,0.2874,0.2874,0.287,0.2875,0.2876,0.2871,0.2871,0.2883,0.2885,0.2887,0.2953,0.2895,0.2896,0.2897,0.2976,0.2978,0.2979,0,0,0,0,0,0,0.2874,0.2874,0.2869,0.2872,0.2872,0.2874,0.287,0.287,0.2879,0.2878,0.2879,0.2882,0.2883,0.2886,0.2905,0.2951,0.2897,0.2897,0.2974,0.2976,0.2979,0.3045,0,0,0,0,0,0,0.2874,0.2874,0.2878,0.2872,0.2872,0.2884,0.287,0.287,0.2882,0.2882,0.2888,0.2889,0.2884,0.2904,0.2906,0.2951,0.2898,0.2972,0.2975,0.2978,0.304,0.3049,0.3057,0,0,0,0,0,0.2874,0.2878,0.2878,0.2878,0.2876,0.2886,0.2886,0.2886,0.2883,0.2893,0.2894,0.289,0.2926,0.2905,0.2908,0.2954,0.297,0.2974,0.2978,0.3037,0.3047,0.3057,0,0,0,0,0,0,0.288,0.2878,0.2878,0.2881,0.2891,0.2886,0.2896,0.2895,0.2903,0.2905,0.29,0.2902,0.2947,0.2935,0.2912,0.2988,0.2953,0.2957,0.2997,0.3007,0.3015,0.3005,0.2899,0,0,0,0,0,0.2884,0.2887,0.2889,0.2895,0.2901,0.2901,0.2907,0.2908,0.2912,0.2915,0.292,0.2932,0.2962,0.2969,0.2989,0.3015,0.3022,0.305,0.3059,0.3065,0.306,0.3131,0.3146,0.2992,0.2992,0.2992,0,0,0.2887,0.2888,0.2889,0.2897,0.2902,0.2916,0.2905,0.292,0.2938,0.2918,0.2945,0.2964,0.2978,0.3019,0.3038,0.3013,0.3112,0.307,0.3076,0.3066,0.3137,0.3152,0.3165,0.2994,0.2994,0.2994,0,0,0.2895,0.2898,0.2905,0.2917,0.2932,0.2936,0.2945,0.2952,0.2964,0.299,0.2996,0.3033,0.3058,0.3082,0.3097,0.3158,0.3161,0.3174,0.3198,0.3268,0.3282,0.3293,0.3314,0.3327,0.3168,0.3168,0.3169,0,0.2902,0.2903,0.2911,0.2925,0.2939,0.2948,0.2964,0.2981,0.2995,0.3016,0.301,0.3083,0.3092,0.3158,0.3175,0.318,0.32,0.316,0.328,0.3292,0.3302,0.332,0.3334,0.3172,0.3172,0.3171,0.3171,0,0.2912,0.2921,0.293,0.2949,0.297,0.2985,0.3012,0.3038,0.3056,0.3076,0.3147,0.3165,0.321,0.3229,0.3215,0.3304,0.3286,0.3292,0.3254,0.3322,0.3336,0.3349,0.3177,0.3176,0.3175,0.3174,0,0,0.2898,0.2928,0.2931,0.2941,0.2982,0.2993,0.3045,0.3088,0.3129,0.3164,0.3227,0.3277,0.3297,0.3315,0.3325,0.3366,0.3454,0.3353,0.3355,0.3371,0.3582,0.345,0.3451,0.3489,0.3492,0.3494,0.3558,0,0.29,0.292,0.2943,0.2971,0.2983,0.3024,0.3068,0.3118,0.3172,0.3238,0.3288,0.3357,0.3331,0.337,0.3411,0.3458,0.3493,0.3434,0.3515,0.3516,0.339,0.3463,0.3182,0.3205,0.357,0.3572,0.3574,0,0.2892,0.2909,0.2931,0.2974,0.2985,0.3013,0.3093,0.3139,0.3245,0.3295,0.3378,0.3428,0.3508,0.348,0.3581,0.3549,0.3564,0.3581,0.3585,0.3444,0.3408,0.3199,0.3214,0.3595,0.3593,0.3592,0.359,0,0.2856,0.2895,0.2908,0.2923,0.2982,0.3012,0.3055,0.3155,0.3216,0.3349,0.3419,0.3517,0.3582,0.3639,0.3663,0.3647,0.3755,0.3748,0.3636,0.3626,0.3389,0.3352,0.3817,0.3817,0.3817,0.3817,0.3817,0,0.2833,0.2843,0.2891,0.2897,0.2931,0.2991,0.3061,0.3126,0.3252,0.3326,0.3448,0.3521,0.363,0.3698,0.3709,0.3701,0.3803,0.3645,0.3644,0.34,0.3366,0.3703,0.3689,0.3819,0.3819,0.3818,0.3818,0,0.2784,0.2812,0.283,0.289,0.291,0.294,0.3051,0.3106,0.3238,0.3349,0.3402,0.3558,0.3639,0.3709,0.3797,0.3745,0.3763,0.3729,0.3404,0.3363,0.3573,0.3561,0.3629,0.3626,0.3622,0.362,0.3617,0,0.2755,0.276,0.2812,0.2825,0.285,0.2912,0.2951,0.3081,0.3149,0.3343,0.3382,0.3524,0.357,0.3647,0.36,0.3597,0.3694,0.3317,0.323,0.3566,0.356,0.3554,0.3547,0.2944,0.2936,0.293,0.2925,0,0.271,0.2731,0.2748,0.2773,0.2804,0.2844,0.2915,0.296,0.3107,0.32,0.3292,0.3355,0.3423,0.3286,0.3285,0.3244,0.3297,0.3186,0.3662,0.3025,0.2922,0.2915,0.2931,0.2869,0.2875,0.2879,0.2882,0.2884,0.2675,0.2671,0.2693,0.2704,0.2735,0.2742,0.2733,0.2813,0.2876,0.2951,0.3091,0.3073,0.3096,0.2943,0.2838,0.2746,0.2978,0.2843,0.2862,0.2888,0.2787,0.2683,0.2565,0.2568,0.2571,0.2574,0.2577,0,0.2616,0.2613,0.2622,0.261,0.2585,0.2647,0.2671,0.2629,0.2619,0.271,0.2754,0.2532,0.2435,0.2454,0.222,0.2197,0.2178,0.2109,0.2068,0.2125,0.2176,0.2038,0.1617,0.1614,0.1611,0.1609,0,0,0.2585,0.255,0.2538,0.2453,0.2446,0.2366,0.2345,0.2302,0.2314,0.2254,0.2213,0.2379,0.2411,0.2012,0.1939,0.1735,0.1923,0.1663,0.2438,0.2451,0.2498,0.2607,0.246,0,0,0,0,0]},{"header":{"parameterUnit":"m.s-1","parameterCategory":2,"la1":30.2991,"la2":30.254,"lo1":-89.0895,"lo2":-89.0444,"dy":0.0017,"dx":0.0017,"nx":28,"ny":28,"refTime":"2025-07-22T03:00:00:Z","depth":"2","parameterNumber":3,"parameterNumberName":"V-component_of_CURRENTS"},"data":[0,0,0,0,0,0,0,0,0,0,0,0,0,0,0,0,0,0,0,0,0,0,0,0,0,0,0,0,0,0,0,0,0,0,0,0,0,0,0,0,0,0,0,0,0,0,0,0,0,0,0,0,0,0,0,0,0,0,0.025,0.025,0,0.0222,0.0222,0.0221,0.02,0.02,0.02,0.02,0.0175,0.0174,0.0173,0,0,0,0,0,0,0,0,0,0,0,0,0,0.0239,0.0239,0.025,0.025,0.0249,0.0222,0.0222,0.0221,0.02,0.02,0.02,0.02,0.0175,0.0174,0.0173,0,0,0,0,0,0,0,0,0,0,0,0,0,0.023,0.024,0.025,0.0237,0.0235,0.0222,0.0222,0.0221,0.02,0.02,0.02,0.02,0.0175,0.0174,0.0173,0.017,0,0,0.0171,0.017,0,0,0,0,0,0,0,0,0.023,0.023,0.0239,0.0238,0.0236,0.0216,0.0208,0.0205,0.0201,0.0213,0.02,0.02,0.0189,0.0187,0.0181,0.0169,0.0168,0.017,0.017,0.0169,0.0169,0,0,0,0,0,0,0,0.0231,0.0231,0.0238,0.0239,0.0237,0.0216,0.0215,0.0207,0.0201,0.0211,0.021,0.0209,0.0188,0.0182,0.018,0.0168,0.017,0.017,0.0169,0.0169,0.0173,0.0174,0,0,0,0,0,0,0.0239,0.0232,0.0239,0.0237,0.0234,0.0217,0.0215,0.0221,0.0201,0.0198,0.0209,0.0208,0.0183,0.0181,0.0179,0.0204,0.017,0.0169,0.0168,0.0172,0.0173,0.0174,0,0,0,0,0,0,0.0239,0.0241,0.024,0.0234,0.0233,0.0218,0.0224,0.0221,0.0218,0.0199,0.0196,0.021,0.0183,0.018,0.0181,0.0202,0.0168,0.0167,0.0172,0.0173,0.0174,0.0235,0,0,0,0,0,0,0.0239,0.0241,0.0246,0.0235,0.0233,0.0241,0.0224,0.022,0.0218,0.0217,0.02,0.0197,0.0183,0.0183,0.018,0.02,0.0167,0.0171,0.0172,0.0173,0.0232,0.0238,0.0243,0,0,0,0,0,0.0239,0.0253,0.0247,0.0248,0.0242,0.0242,0.0239,0.0226,0.0218,0.0223,0.0212,0.0198,0.0189,0.0183,0.018,0.02,0.017,0.0172,0.0173,0.023,0.0237,0.0243,0,0,0,0,0,0,0.025,0.0252,0.0245,0.0258,0.0253,0.0239,0.0241,0.0232,0.0225,0.0225,0.0205,0.0202,0.0211,0.0195,0.0188,0.0204,0.0178,0.0179,0.0222,0.0228,0.0234,0.0244,0.0166,0,0,0,0,0,0.0255,0.0267,0.0261,0.027,0.027,0.0256,0.0253,0.0246,0.0239,0.0235,0.0225,0.0215,0.0213,0.0213,0.0205,0.0213,0.0192,0.0224,0.0229,0.0234,0.0239,0.0229,0.0234,0.0179,0.0179,0.0179,0,0,0.0261,0.0264,0.0269,0.0273,0.0267,0.0281,0.0254,0.0257,0.0272,0.0234,0.025,0.0233,0.0219,0.023,0.0233,0.022,0.0237,0.0236,0.024,0.0243,0.0231,0.0236,0.0241,0.018,0.018,0.0179,0,0,0.0284,0.0282,0.0302,0.0303,0.0302,0.0298,0.0302,0.0294,0.0294,0.0304,0.0284,0.0279,0.0275,0.0269,0.0267,0.0296,0.0265,0.0293,0.0331,0.0322,0.0326,0.033,0.0304,0.0305,0.0297,0.0298,0.0298,0,0.029,0.0317,0.0305,0.0325,0.0335,0.0312,0.0338,0.0335,0.0329,0.0337,0.032,0.0316,0.0297,0.0316,0.0322,0.0311,0.0292,0.031,0.0329,0.0333,0.0335,0.0308,0.0308,0.0301,0.03,0.03,0.03,0,0.0331,0.0351,0.0362,0.0385,0.0392,0.041,0.0409,0.0416,0.0412,0.0407,0.042,0.0392,0.0392,0.0383,0.0361,0.0376,0.0351,0.0337,0.0315,0.0345,0.0313,0.0313,0.0305,0.0304,0.0303,0.0302,0,0,0.0355,0.0387,0.0392,0.0419,0.0429,0.0446,0.0471,0.0492,0.0521,0.05,0.0535,0.0509,0.0485,0.0479,0.0449,0.0432,0.0425,0.0394,0.0392,0.0371,0.0391,0.036,0.0356,0.0415,0.0416,0.0416,0.0359,0,0.0394,0.0452,0.0454,0.0511,0.0545,0.0537,0.0568,0.058,0.0585,0.061,0.0575,0.0595,0.0526,0.0535,0.0503,0.0454,0.0427,0.0441,0.0362,0.036,0.0332,0.0356,0.0356,0.0304,0.0358,0.0358,0.0358,0,0.0436,0.0477,0.054,0.0595,0.0608,0.0634,0.0688,0.0716,0.0731,0.0735,0.0728,0.0701,0.0678,0.0621,0.0535,0.0547,0.0472,0.042,0.0417,0.0367,0.0328,0.0283,0.03,0.0356,0.0356,0.0356,0.0356,0,0.0477,0.0537,0.0596,0.0613,0.0666,0.0695,0.0727,0.0754,0.0804,0.0823,0.0859,0.0805,0.0805,0.0705,0.0578,0.0565,0.0478,0.0449,0.0346,0.0342,0.0316,0.0309,0.0387,0.0387,0.0387,0.0387,0.0387,0,0.0525,0.0572,0.0622,0.0657,0.074,0.0753,0.084,0.0859,0.0913,0.099,0.0931,0.0969,0.0828,0.0757,0.062,0.0479,0.0507,0.0356,0.0331,0.0336,0.0332,0.0357,0.0354,0.0385,0.0386,0.0386,0.0386,0,0.0561,0.0589,0.0666,0.0734,0.0761,0.0825,0.0925,0.0994,0.1027,0.1127,0.1145,0.1105,0.1012,0.085,0.0693,0.0552,0.0413,0.0351,0.0355,0.0332,0.0269,0.027,0.024,0.0239,0.0238,0.0237,0.0236,0,0.0586,0.0628,0.0725,0.0783,0.0816,0.0912,0.0988,0.1049,0.1135,0.1213,0.1272,0.1213,0.1182,0.0924,0.0677,0.0441,0.0407,0.0271,0.0243,0.0279,0.0257,0.026,0.0263,0.0227,0.0226,0.0225,0.0224,0,0.0638,0.0666,0.0734,0.0853,0.094,0.1051,0.1161,0.1245,0.1334,0.1412,0.1482,0.1461,0.1223,0.0979,0.0646,0.0474,0.0308,0.0249,0.03,0.0266,0.0262,0.0242,0.0246,0.0218,0.0219,0.0219,0.022,0.022,0.0675,0.0729,0.0815,0.0931,0.1037,0.1171,0.1272,0.1395,0.1533,0.1653,0.1621,0.1584,0.1305,0.0879,0.0586,0.0269,0.0293,0.0162,0.0166,0.0171,0.0181,0.0176,0.0117,0.0117,0.0117,0.0117,0.0117,0,0.0724,0.0787,0.0891,0.1024,0.1142,0.1197,0.1378,0.1481,0.1642,0.1732,0.1781,0.1498,0.1221,0.0896,0.0436,0.0167,0.0144,0.0061,0.0095,0.0103,0.0109,0.0118,0.0036,0.0035,0.0034,0.0034,0,0,0.075,0.0845,0.0896,0.1082,0.1184,0.135,0.1457,0.1606,0.1705,0.1788,0.1766,0.1712,0.1311,0.0963,0.0589,0.0317,0.0272,0.0252,0.0343,0.0436,0.0446,0.0189,0.0214,0,0,0,0,0]}],[{"header":{"parameterUnit":"m.s-1","parameterCategory":2,"la1":30.2991,"la2":30.254,"lo1":-89.0895,"lo2":-89.0444,"dy":0.0017,"dx":0.0017,"nx":28,"ny":28,"refTime":"2025-07-22T03:00:00:Z","depth":"4","parameterNumber":2,"parameterNumberName":"U-component_of_CURRENTS"},"data":[0,0,0,0,0,0,0,0,0,0,0,0,0,0,0,0,0,0,0,0,0,0,0,0,0,0,0,0,0,0,0,0,0,0,0,0,0,0,0,0,0,0,0,0,0,0,0,0,0,0,0,0,0,0,0,0,0,0,0.1816,0.1817,0,0.1855,0.1856,0.1856,0.1906,0.1907,0.1908,0.1909,0.1949,0.1949,0.1949,0,0,0,0,0,0,0,0,0,0,0,0,0,0.1773,0.1774,0.1816,0.1817,0.1817,0.1855,0.1856,0.1856,0.1906,0.1908,0.1909,0.191,0.1949,0.1949,0.1949,0,0,0,0,0,0,0,0,0,0,0,0,0,0.1798,0.1774,0.1816,0.1849,0.1852,0.1855,0.1856,0.1856,0.1906,0.1908,0.1909,0.1911,0.1949,0.1949,0.1949,0.1919,0,0,0.1949,0.1949,0,0,0,0,0,0,0,0,0.1796,0.1799,0.1843,0.1847,0.185,0.188,0.1855,0.1878,0.1906,0.1883,0.1909,0.1911,0.1926,0.1928,0.1929,0.1921,0.1922,0.1949,0.1949,0.1949,0.195,0,0,0,0,0,0,0,0.1795,0.1798,0.1829,0.1844,0.1848,0.1858,0.1863,0.1859,0.1894,0.1885,0.189,0.1897,0.1928,0.1928,0.193,0.1923,0.1949,0.1949,0.195,0.195,0.2021,0.2022,0,0,0,0,0,0,0.1793,0.1796,0.1828,0.1831,0.1829,0.1858,0.1863,0.1867,0.1894,0.19,0.1896,0.1899,0.1927,0.193,0.1932,0.2011,0.1949,0.195,0.195,0.2019,0.2021,0.2023,0,0,0,0,0,0,0.1792,0.1796,0.1827,0.1816,0.1821,0.1857,0.1861,0.1867,0.1909,0.1902,0.1908,0.1937,0.1929,0.1932,0.1972,0.2009,0.195,0.195,0.2017,0.202,0.2022,0.2098,0,0,0,0,0,0,0.1791,0.1795,0.1817,0.1816,0.1822,0.1856,0.1859,0.1867,0.191,0.1916,0.1939,0.1942,0.193,0.1972,0.1972,0.2008,0.195,0.2014,0.2018,0.2021,0.2093,0.2103,0.2111,0,0,0,0,0,0.1789,0.1805,0.1817,0.1823,0.1844,0.1858,0.1862,0.189,0.1911,0.1934,0.1958,0.1943,0.1994,0.1974,0.1973,0.201,0.2013,0.2017,0.2021,0.2089,0.2101,0.2111,0,0,0,0,0,0,0.18,0.1812,0.1825,0.1847,0.1866,0.1868,0.1898,0.1912,0.1947,0.1967,0.1961,0.1966,0.2017,0.2003,0.1981,0.2042,0.2003,0.2007,0.2054,0.2065,0.2074,0.2075,0.195,0,0,0,0,0,0.1811,0.1831,0.184,0.1864,0.1877,0.1895,0.1913,0.1931,0.1951,0.1971,0.1987,0.2006,0.2024,0.2039,0.2049,0.2077,0.2071,0.2102,0.2111,0.2119,0.2121,0.2155,0.2167,0.2036,0.2036,0.2036,0,0,0.1823,0.1834,0.1847,0.1869,0.1889,0.1911,0.1911,0.1949,0.1979,0.1967,0.2028,0.2041,0.2041,0.208,0.2101,0.2078,0.2155,0.2124,0.2131,0.2129,0.216,0.2173,0.2184,0.2039,0.2039,0.2038,0,0,0.1843,0.1869,0.1889,0.1908,0.1944,0.1952,0.1973,0.1999,0.203,0.2078,0.2082,0.2118,0.2148,0.2151,0.2155,0.2217,0.2204,0.2232,0.2275,0.2308,0.2319,0.2329,0.2341,0.2351,0.2233,0.2233,0.2233,0,0.1864,0.1881,0.1899,0.1923,0.1947,0.1976,0.2003,0.2032,0.2073,0.2097,0.2116,0.2174,0.2178,0.221,0.2242,0.2237,0.2253,0.2233,0.232,0.2329,0.2337,0.2348,0.2357,0.2237,0.2237,0.2236,0.2236,0,0.1881,0.1915,0.1932,0.1969,0.1999,0.203,0.2064,0.2109,0.2155,0.2176,0.2243,0.2256,0.2288,0.23,0.2294,0.2354,0.2346,0.233,0.229,0.2355,0.2362,0.2371,0.2243,0.2242,0.2241,0.224,0,0,0.1873,0.1932,0.1943,0.1968,0.2027,0.2045,0.2111,0.2157,0.22,0.2259,0.2313,0.2356,0.2375,0.2381,0.238,0.241,0.2486,0.2409,0.2408,0.2417,0.2562,0.2395,0.2388,0.25,0.2502,0.2503,0.2543,0,0.1885,0.1929,0.1961,0.2017,0.2039,0.2093,0.2143,0.2198,0.2255,0.2315,0.2351,0.2406,0.2401,0.2434,0.2466,0.2488,0.2514,0.2476,0.25,0.25,0.2342,0.2394,0.251,0.255,0.2552,0.2553,0.2554,0,0.188,0.1913,0.1966,0.203,0.2048,0.2095,0.2178,0.2229,0.2314,0.2362,0.2427,0.2461,0.2526,0.2513,0.2582,0.2568,0.2576,0.2581,0.2582,0.2403,0.235,0.2471,0.257,0.2568,0.2567,0.2566,0.2565,0,0.1837,0.191,0.1953,0.1978,0.2059,0.2109,0.2164,0.2251,0.23,0.2406,0.246,0.2528,0.2588,0.2619,0.265,0.2636,0.2713,0.2684,0.253,0.2519,0.2623,0.2613,0.2722,0.2722,0.2722,0.2722,0.2722,0,0.1805,0.1845,0.1945,0.1967,0.2029,0.2099,0.2175,0.224,0.2339,0.2393,0.2489,0.2533,0.2628,0.268,0.2682,0.2635,0.2741,0.2541,0.252,0.2654,0.2647,0.2629,0.2618,0.2723,0.2723,0.2722,0.2722,0,0.1741,0.1808,0.1864,0.1969,0.201,0.206,0.2182,0.2221,0.2337,0.2416,0.2461,0.2577,0.2638,0.2693,0.2747,0.266,0.2637,0.259,0.2737,0.2723,0.241,0.2402,0.2409,0.2404,0.2399,0.2395,0.2392,0,0.1704,0.1731,0.1858,0.1896,0.1953,0.2041,0.2089,0.221,0.2249,0.2412,0.2428,0.2549,0.2605,0.2543,0.2614,0.2592,0.2556,0.252,0.2449,0.24,0.238,0.2379,0.2378,0.2385,0.2383,0.2382,0.2381,0,0.1637,0.1706,0.1754,0.1834,0.19,0.195,0.2034,0.2048,0.2178,0.2313,0.2337,0.2358,0.2415,0.2435,0.2444,0.2421,0.2529,0.247,0.2478,0.2411,0.237,0.2354,0.2359,0.2365,0.2367,0.2369,0.2369,0,0.1598,0.1615,0.1692,0.1743,0.1822,0.1827,0.1883,0.192,0.1976,0.2148,0.2156,0.2275,0.24,0.2347,0.2354,0.2323,0.2271,0.2173,0.2196,0.2215,0.2129,0.2046,0.1925,0,0,0,0,0,0.1545,0.1545,0.1588,0.1625,0.1694,0.1736,0.1824,0.1878,0.2011,0.1975,0.2056,0.2095,0.2103,0.2161,0.2086,0.2252,0.2277,0.2152,0.2177,0.2275,0.2294,0.2208,0,0,0,0,0,0,0.1504,0.1546,0.1546,0.1515,0.1519,0.1567,0.1617,0.1705,0.1684,0.1836,0.1852,0.1968,0.2009,0.2135,0.2052,0.2066,0.2033,0.2229,0.2223,0.2264,0.2281,0.2296,0.2215,0,0,0,0,0]},{"header":{"parameterUnit":"m.s-1","parameterCategory":2,"la1":30.2991,"la2":30.254,"lo1":-89.0895,"lo2":-89.0444,"dy":0.0017,"dx":0.0017,"nx":28,"ny":28,"refTime":"2025-07-22T03:00:00:Z","depth":"4","parameterNumber":3,"parameterNumberName":"V-component_of_CURRENTS"},"data":[0,0,0,0,0,0,0,0,0,0,0,0,0,0,0,0,0,0,0,0,0,0,0,0,0,0,0,0,0,0,0,0,0,0,0,0,0,0,0,0,0,0,0,0,0,0,0,0,0,0,0,0,0,0,0,0,0,0,0.0144,0.0143,0,0.0126,0.0126,0.0125,0.0117,0.0117,0.0117,0.0117,0.0099,0.0098,0.0098,0,0,0,0,0,0,0,0,0,0,0,0,0,0.0136,0.0136,0.0144,0.0143,0.0143,0.0126,0.0126,0.0125,0.0117,0.0117,0.0117,0.0117,0.0099,0.0098,0.0098,0,0,0,0,0,0,0,0,0,0,0,0,0,0.013,0.0136,0.0144,0.0137,0.0136,0.0126,0.0126,0.0125,0.0117,0.0117,0.0117,0.0117,0.0099,0.0098,0.0098,0.0092,0,0,0.0095,0.0095,0,0,0,0,0,0,0,0,0.0131,0.0131,0.0138,0.0138,0.0137,0.0124,0.0116,0.0114,0.0117,0.0124,0.0117,0.0117,0.0107,0.0106,0.0102,0.0091,0.009,0.0095,0.0095,0.0094,0.0094,0,0,0,0,0,0,0,0.0131,0.0131,0.0136,0.0138,0.0137,0.0123,0.0123,0.0116,0.0115,0.0123,0.0123,0.0121,0.0107,0.0103,0.0101,0.009,0.0095,0.0094,0.0094,0.0094,0.0087,0.0088,0,0,0,0,0,0,0.0136,0.0132,0.0137,0.0136,0.0134,0.0124,0.0123,0.0128,0.0115,0.0113,0.0121,0.0121,0.0104,0.0102,0.0101,0.0116,0.0094,0.0094,0.0093,0.0087,0.0088,0.0088,0,0,0,0,0,0,0.0136,0.0137,0.0137,0.0133,0.0132,0.0124,0.0129,0.0127,0.0128,0.0114,0.0112,0.0124,0.0104,0.0102,0.0102,0.0115,0.0093,0.0092,0.0087,0.0087,0.0088,0.0132,0,0,0,0,0,0,0.0136,0.0137,0.0142,0.0134,0.0133,0.0138,0.0129,0.0127,0.0127,0.0126,0.0116,0.0114,0.0104,0.0104,0.0102,0.0113,0.0092,0.0086,0.0087,0.0088,0.013,0.0134,0.0137,0,0,0,0,0,0.0136,0.0146,0.0143,0.0143,0.0141,0.0139,0.0137,0.0131,0.0127,0.0131,0.0124,0.0114,0.0106,0.0103,0.0101,0.0112,0.0086,0.0087,0.0087,0.0129,0.0133,0.0137,0,0,0,0,0,0,0.0144,0.0146,0.0142,0.0152,0.0148,0.0138,0.014,0.0135,0.0132,0.0133,0.0119,0.0117,0.0121,0.0109,0.0107,0.0111,0.0094,0.0094,0.0126,0.013,0.0134,0.0146,0.0091,0,0,0,0,0,0.0149,0.0158,0.0153,0.016,0.016,0.0151,0.0149,0.0145,0.0141,0.0139,0.0132,0.0124,0.012,0.012,0.0112,0.0116,0.0094,0.0121,0.0124,0.0127,0.0135,0.0111,0.0113,0.009,0.009,0.009,0,0,0.0153,0.0155,0.016,0.0162,0.0159,0.0169,0.015,0.0153,0.0165,0.0138,0.0151,0.0136,0.0123,0.0129,0.0129,0.0122,0.0121,0.0128,0.0131,0.0137,0.0111,0.0114,0.0116,0.0091,0.009,0.009,0,0,0.017,0.017,0.0184,0.0186,0.0185,0.0183,0.0186,0.018,0.0181,0.0189,0.0173,0.0165,0.0162,0.0154,0.015,0.0167,0.0139,0.0164,0.0195,0.0171,0.0173,0.0174,0.0145,0.0143,0.0167,0.0167,0.0167,0,0.0176,0.0196,0.0187,0.0201,0.021,0.0194,0.0213,0.0212,0.0207,0.0212,0.0201,0.0191,0.0176,0.0183,0.0188,0.0176,0.0155,0.0182,0.0176,0.0177,0.0177,0.0147,0.0145,0.017,0.0169,0.0169,0.0169,0,0.0204,0.0221,0.0229,0.0247,0.0253,0.0266,0.0266,0.0272,0.0271,0.0266,0.027,0.0244,0.024,0.023,0.0217,0.0216,0.0197,0.0182,0.0167,0.0182,0.0149,0.0146,0.0173,0.0172,0.0171,0.0171,0,0,0.022,0.0246,0.025,0.0272,0.0281,0.0294,0.0314,0.0329,0.0349,0.0332,0.0351,0.033,0.0309,0.0302,0.0276,0.0253,0.0233,0.0224,0.0222,0.0199,0.0175,0.016,0.0155,0.0216,0.0216,0.0216,0.0149,0,0.0248,0.0292,0.0295,0.034,0.0365,0.0362,0.0388,0.0396,0.0397,0.0408,0.0376,0.0383,0.0339,0.034,0.0308,0.0256,0.0227,0.0252,0.0161,0.0158,0.0146,0.0152,0.0215,0.0146,0.0145,0.0145,0.0144,0,0.0275,0.0307,0.0357,0.0402,0.0413,0.0436,0.0476,0.0498,0.0502,0.05,0.0487,0.0459,0.0429,0.039,0.0301,0.0319,0.0254,0.0204,0.02,0.0171,0.0138,0.0128,0.0138,0.0138,0.0139,0.0139,0.014,0,0.0301,0.035,0.0397,0.0411,0.0456,0.0482,0.0511,0.0528,0.0562,0.0562,0.0578,0.0525,0.0513,0.0423,0.0316,0.0311,0.021,0.019,0.0112,0.0109,0.0123,0.0122,0.0126,0.0126,0.0126,0.0127,0.0127,0,0.0331,0.0369,0.0417,0.0444,0.0512,0.0527,0.0593,0.0608,0.0639,0.0685,0.0632,0.064,0.0522,0.0448,0.0337,0.0214,0.0223,0.012,0.0094,0.0142,0.0144,0.012,0.012,0.0124,0.0125,0.0125,0.0126,0,0.035,0.0377,0.0439,0.0499,0.0526,0.0578,0.0659,0.0706,0.0724,0.0781,0.0789,0.0733,0.0638,0.0504,0.0358,0.0255,0.0132,0.0083,0.0145,0.0123,0.0039,0.0043,-0.0005,-0.0006,-0.0007,-0.0007,-0.0008,0,0.0362,0.0395,0.0482,0.0531,0.0563,0.0643,0.0704,0.0749,0.08,0.0835,0.0863,0.0796,0.0738,0.052,0.0366,0.0153,0.0118,0.0043,0.004,0.0048,0.0027,0.0032,0.0036,-0.0009,-0.001,-0.001,-0.001,0,0.0388,0.0418,0.0473,0.0574,0.0648,0.0735,0.0819,0.086,0.0919,0.0935,0.093,0.0824,0.0713,0.0531,0.0365,0.0209,0.0086,0.0033,0.0034,0.003,0.0042,0.0023,0.0028,-0.0013,-0.0013,-0.0012,-0.0012,0,0.0408,0.0448,0.052,0.0612,0.0709,0.0799,0.0842,0.0903,0.0953,0.0986,0.0979,0.0861,0.0794,0.0559,0.0405,0.0252,0.0208,0.0142,0.0137,0.0138,0.0192,0.0228,0.0214,0,0,0,0,0,0.0426,0.0472,0.0554,0.0653,0.0751,0.081,0.0909,0.0945,0.0996,0.1004,0.0996,0.0895,0.0679,0.058,0.0426,0.0372,0.0168,0.0182,0.0087,-0.003,-0.0026,0.0011,0,0,0,0,0,0,0.0437,0.051,0.0549,0.0672,0.0745,0.0856,0.0921,0.096,0.096,0.0984,0.0873,0.0836,0.0623,0.0769,0.0417,0.0371,0.0283,0.0088,0.0084,-0.0032,-0.0028,-0.0026,0.0014,0,0,0,0,0]}]]